Weather History for Scappoose, OR

Change the Weather History Date:

Friday, September 6, 2013

  Actual Average Record
Temperature  
Mean Temperature 64 °F -  
Max Temperature 70 °F - 97 °F (2014)
Min Temperature 59 °F - 43 °F (2010)
Degree Days  
Heating Degree Days 0    
Month to date heating degree days 0  
Since 1 July heating degree days 24  
Cooling Degree Days 0    
Month to date cooling degree days 18  
Year to date cooling degree days 342  
Growing Degree Days 14 (Base 50)    
Moisture  
Dew Point 58 °F    
Average Humidity 82    
Maximum Humidity 97    
Minimum Humidity 66    
Precipitation  
Precipitation 0.90 in - 1.01 in (2013)
Month to date precipitation 1.96  
Year to date precipitation 16.50  
Sea Level Pressure  
Sea Level Pressure 30.06 in    
Wind  
Wind Speed 3 mph (South)    
Max Wind Speed 8 mph    
Max Gust Speed 10 mph    
Visibility 8 miles    
Events Rain    
T = Trace of Precipitation, MM = Missing Value Source: NWS Daily Summary

Daily Weather History Graph

Daily Weather History Graph

Search for Another Location

Airport:

Trip Planner

Search our weather history database for the weather conditions in past years. The results will help you decide how hot, cold, wet, or windy it might be!

Date:

Astronomy

Sep. 06, 2013 Rise Set
Actual Time 6:39 AM PDT 7:39 PM PDT
Civil Twilight 6:08 AM PDT 8:09 PM PDT
Nautical Twilight 5:32 AM PDT 8:45 PM PDT
Astronomical Twilight 4:53 AM PDT 9:24 PM PDT
Moon 8:04 AM PDT (9/6) 7:58 PM PDT (9/6)
Length of Visible Light 14h 00m
Length of Day
13h 00m
New Moon, 2% of the Moon is Illuminated
Sep 6
New Moon
Sep 12
First Quarter
Sep 19
Full
Sep 26
Last Quarter
Oct 4
New

Hourly Weather History & Observations

Time (PDT) Temp. Dew Point Humidity Pressure Visibility Wind Dir Wind Speed Gust Speed Precip Events Conditions
12:53 AM 60.1 °F 57.9 °F 93% 30.03 in 5.0 mi Calm Calm - 0.11 in Rain Light Rain
1:10 AM 60.8 °F 57.2 °F 88% 30.02 in 4.0 mi Calm Calm - 0.04 in Rain Rain
1:30 AM 59.0 °F 57.2 °F 94% 30.00 in 4.0 mi Calm Calm - 0.10 in Rain Rain
1:53 AM 60.1 °F 57.9 °F 93% 30.01 in 5.0 mi Calm Calm - 0.14 in Rain Rain
2:07 AM 60.8 °F 57.2 °F 88% 30.01 in 5.0 mi Calm Calm - 0.04 in Rain Light Rain
2:53 AM 60.1 °F 57.9 °F 93% 30.02 in 5.0 mi East 5.8 mph - 0.15 in Rain Rain
3:17 AM 60.8 °F 57.2 °F 88% 30.01 in 2.5 mi Calm Calm - 0.09 in Rain Rain
3:24 AM 60.8 °F 57.2 °F 88% 30.01 in 5.0 mi Calm Calm - 0.09 in Rain Light Rain
3:53 AM 60.1 °F 57.9 °F 93% 30.01 in 3.0 mi Calm Calm - 0.18 in Rain Rain
4:13 AM 60.8 °F 59.0 °F 94% 30.01 in 4.0 mi Calm Calm - 0.07 in Rain Rain
4:42 AM 60.8 °F 59.0 °F 94% 30.01 in 6.0 mi Calm Calm - 0.14 in Rain Light Rain
4:53 AM 60.1 °F 59.0 °F 96% 30.01 in 6.0 mi Calm Calm - 0.15 in Rain Light Rain
5:53 AM 61.0 °F 59.0 °F 93% 30.01 in 6.0 mi South 5.8 mph - 0.10 in Rain Light Rain
6:53 AM 61.0 °F 59.0 °F 93% 30.02 in 6.0 mi ESE 4.6 mph - 0.09 in Rain Light Rain
7:53 AM 61.0 °F 59.0 °F 93% 30.05 in 10.0 mi South 4.6 mph - 0.03 in Rain Light Rain
8:53 AM 62.1 °F 59.0 °F 90% 30.06 in 9.0 mi SSE 3.5 mph - 0.05 in Rain Light Rain
9:22 AM 62.6 °F 59.0 °F 88% 30.07 in 10.0 mi Calm Calm - 0.01 in Rain Light Rain
9:49 AM 62.6 °F 59.0 °F 88% 30.08 in 10.0 mi Calm Calm - 0.01 in   Unknown
9:53 AM 62.1 °F 59.0 °F 90% 30.08 in 10.0 mi South 3.5 mph - 0.01 in   Unknown
10:19 AM 62.6 °F 59.0 °F 88% 30.08 in 10.0 mi Calm Calm - N/A   Overcast
10:53 AM 63.0 °F 59.0 °F 87% 30.09 in 10.0 mi North - - N/A   Unknown
11:53 AM 64.0 °F 60.1 °F 87% 30.10 in 10.0 mi South 4.6 mph - N/A   Overcast
12:53 PM 66.0 °F 59.0 °F 78% 30.10 in 10.0 mi Variable 4.6 mph - N/A   Overcast
1:53 PM 66.9 °F 59.0 °F 76% 30.11 in 10.0 mi South 4.6 mph - N/A   Unknown
2:53 PM 68.0 °F 59.0 °F 73% 30.10 in 10.0 mi SW 6.9 mph - N/A   Unknown
3:53 PM 69.1 °F 57.9 °F 68% 30.09 in 10.0 mi South 3.5 mph - N/A   Unknown
4:53 PM 69.1 °F 57.9 °F 68% 30.10 in 10.0 mi Variable 3.5 mph - N/A   Unknown
5:53 PM 69.1 °F 57.9 °F 68% 30.10 in 10.0 mi SSE 4.6 mph - N/A   Unknown
6:53 PM 66.9 °F 59.0 °F 76% 30.10 in 10.0 mi Calm Calm - N/A   Unknown
7:53 PM 64.9 °F 57.9 °F 78% 30.10 in 10.0 mi Calm Calm - N/A   Unknown
8:53 PM 64.9 °F 57.9 °F 78% 30.12 in 10.0 mi Calm Calm - N/A   Unknown
9:53 PM 63.0 °F 59.0 °F 87% 30.12 in 10.0 mi Calm Calm - N/A   Overcast
10:53 PM 61.0 °F 59.0 °F 93% 30.12 in 10.0 mi Calm Calm - N/A   Overcast
11:14 PM 60.8 °F 59.0 °F 94% 30.12 in 10.0 mi Calm Calm - N/A   Overcast
11:53 PM 61.0 °F 59.0 °F 93% 30.11 in 10.0 mi Calm Calm - N/A   Overcast